{"data":{"norad_id":61717,"epoch":"2026-05-25T03:22:33.086208Z","epoch_age_seconds":62853,"freshness":"FRESH","line1":"1 61717U 24196L   26145.14066072  .00000689  00000+0  35394-4 0  9998","line2":"2 61717  53.1612 106.0821 0001424  80.0038 280.1124 15.30192130 88863","mean_motion":15.3019213,"eccentricity":0.0001424,"inclination_deg":53.1612,"raan_deg":106.0821,"arg_perigee_deg":80.0038,"mean_anomaly_deg":280.1124,"bstar":3.5394e-5,"rev_number":8886,"period_min":94.105829703882,"perigee_km":474.26264724059,"apogee_km":476.21448860233,"semimajor_km":6853.3755679215,"source":"CELESTRAK","updated_at":"2026-05-25T13:38:19.445883Z"}}